[[{"header":{"parameterUnit":"m.s-1","parameterCategory":1,"la1":30.2991,"la2":30.254,"lo1":-89.0895,"lo2":-89.0444,"dy":0.0017,"dx":0.0017,"nx":28,"ny":28,"refTime":"2025-08-09T21:00:00:Z","depth":0,"parameterNumber":2,"parameterNumberName":"U-component_of_WINDS"},"data":[0,0,0,0,0,0,0,0,0,0,0,0,0,0,0,0,0,0,0,0,0,0,0,0,0,0,0,0,0,0,0,0,0,0,0,0,0,0,0,0,0,0,0,0,0,0,0,0,0,0,0,0,0,0,0,0,0,0,-2.2342,-2.2342,0,-2.233,-2.233,-2.2329,-2.2249,-2.2247,-2.2245,-2.2243,-2.2233,-2.2234,-2.2236,0,0,0,0,0,0,0,0,0,0,0,0,0,-2.23,-2.2301,-2.2342,-2.2342,-2.2342,-2.233,-2.233,-2.2329,-2.2249,-2.2247,-2.2245,-2.2242,-2.2232,-2.2234,-2.2236,0,0,0,0,0,0,0,0,0,0,0,0,0,-2.2306,-2.2301,-2.2342,-2.23,-2.2296,-2.233,-2.233,-2.2329,-2.225,-2.2247,-2.2244,-2.2241,-2.2232,-2.2234,-2.2236,-2.231,0,0,-2.2244,-2.2245,0,0,0,0,0,0,0,0,-2.2306,-2.2308,-2.2307,-2.2303,-2.2299,-2.2288,-2.2311,-2.2323,-2.2251,-2.2268,-2.2243,-2.224,-2.2254,-2.2254,-2.2258,-2.2309,-2.2309,-2.2244,-2.2245,-2.2246,-2.2247,0,0,0,0,0,0,0,-2.2305,-2.2308,-2.2337,-2.2307,-2.2302,-2.2283,-2.2281,-2.2313,-2.2277,-2.2266,-2.226,-2.226,-2.2251,-2.2256,-2.2257,-2.2309,-2.2244,-2.2246,-2.2247,-2.2248,-2.2421,-2.2424,0,0,0,0,0,0,-2.231,-2.2308,-2.2338,-2.2337,-2.2295,-2.2286,-2.2284,-2.2294,-2.2277,-2.2271,-2.2262,-2.2256,-2.2254,-2.2255,-2.2257,-2.2342,-2.2246,-2.2248,-2.225,-2.2418,-2.2421,-2.2425,0,0,0,0,0,0,-2.231,-2.2314,-2.2338,-2.2321,-2.2322,-2.229,-2.2303,-2.2296,-2.2301,-2.2274,-2.2267,-2.2274,-2.2251,-2.2254,-2.2297,-2.2341,-2.2249,-2.2252,-2.2414,-2.2419,-2.2423,-2.2513,0,0,0,0,0,0,-2.2309,-2.2314,-2.2341,-2.2322,-2.2324,-2.2378,-2.2306,-2.2298,-2.2305,-2.2296,-2.2283,-2.2278,-2.2249,-2.2294,-2.23,-2.2342,-2.2253,-2.241,-2.2416,-2.2422,-2.2506,-2.2521,-2.2533,0,0,0,0,0,-2.2308,-2.2367,-2.2342,-2.2346,-2.2356,-2.2381,-2.2382,-2.2347,-2.2308,-2.2336,-2.2319,-2.2278,-2.2335,-2.2299,-2.2305,-2.2349,-2.2407,-2.2414,-2.2421,-2.25,-2.2518,-2.2533,0,0,0,0,0,0,-2.2392,-2.2363,-2.2336,-2.2391,-2.2389,-2.2367,-2.24,-2.2366,-2.2375,-2.2368,-2.2325,-2.2322,-2.2373,-2.2365,-2.2326,-2.242,-2.2364,-2.2373,-2.2423,-2.2439,-2.2452,-2.2453,-2.2255,0,0,0,0,0,-2.2417,-2.2438,-2.2412,-2.2463,-2.2464,-2.2432,-2.2442,-2.2415,-2.2412,-2.241,-2.2396,-2.2396,-2.2413,-2.2426,-2.244,-2.2505,-2.2502,-2.2538,-2.2552,-2.2563,-2.2571,-2.2606,-2.2622,-2.2448,-2.2448,-2.2448,0,0,-2.2468,-2.2456,-2.2472,-2.248,-2.2475,-2.2499,-2.2432,-2.246,-2.2478,-2.2415,-2.2455,-2.2446,-2.2442,-2.2497,-2.252,-2.2492,-2.2618,-2.2572,-2.2581,-2.2583,-2.2615,-2.2631,-2.2646,-2.2453,-2.2452,-2.2452,0,0,-2.2575,-2.2567,-2.2609,-2.2606,-2.2599,-2.2578,-2.2589,-2.2572,-2.2563,-2.2603,-2.2557,-2.2578,-2.2609,-2.2608,-2.2612,-2.2721,-2.2685,-2.2727,-2.2796,-2.2831,-2.2845,-2.2857,-2.2896,-2.2911,-2.2735,-2.2735,-2.2735,0,-2.264,-2.2674,-2.2635,-2.2666,-2.2672,-2.2616,-2.2659,-2.2658,-2.2657,-2.2663,-2.2631,-2.267,-2.2663,-2.2718,-2.2744,-2.2749,-2.276,-2.2728,-2.2846,-2.2857,-2.2868,-2.2905,-2.292,-2.274,-2.274,-2.2739,-2.2739,0,-2.2755,-2.2779,-2.2814,-2.2814,-2.2824,-2.2861,-2.2829,-2.2844,-2.2817,-2.28,-2.2842,-2.2833,-2.2845,-2.2856,-2.283,-2.2908,-2.289,-2.2853,-2.2796,-2.289,-2.2925,-2.2939,-2.2748,-2.2746,-2.2744,-2.2743,0,0,-2.2913,-2.2892,-2.2906,-2.2906,-2.2895,-2.2914,-2.295,-2.2961,-2.2975,-2.2977,-2.3007,-2.3035,-2.3,-2.3005,-2.2979,-2.3009,-2.3097,-2.2968,-2.2967,-2.2993,-2.3184,-2.3212,-2.323,-2.3073,-2.3076,-2.3078,-2.3184,0,-2.3016,-2.3074,-2.3041,-2.3105,-2.3127,-2.3075,-2.3106,-2.3104,-2.309,-2.3108,-2.3092,-2.3113,-2.3065,-2.3068,-2.3096,-2.3081,-2.3135,-2.3073,-2.3102,-2.3103,-2.3104,-2.3247,-2.3277,-2.3378,-2.3197,-2.32,-2.3201,0,-2.3143,-2.315,-2.3216,-2.3203,-2.3211,-2.3239,-2.3248,-2.3266,-2.3263,-2.3251,-2.3257,-2.3223,-2.3259,-2.3203,-2.3252,-2.321,-2.322,-2.3215,-2.3218,-2.322,-2.3158,-2.3253,-2.3409,-2.3425,-2.3222,-2.322,-2.3219,0,-2.3253,-2.3279,-2.3322,-2.3324,-2.3309,-2.3331,-2.3326,-2.332,-2.3329,-2.3337,-2.3344,-2.3356,-2.3363,-2.3374,-2.3346,-2.3308,-2.34,-2.3341,-2.3391,-2.3392,-2.3412,-2.3412,-2.3573,-2.3419,-2.3419,-2.3418,-2.3418,0,-2.3372,-2.3414,-2.3372,-2.3398,-2.3445,-2.3407,-2.3455,-2.3444,-2.344,-2.3465,-2.3421,-2.3445,-2.3406,-2.3427,-2.3405,-2.345,-2.3453,-2.3445,-2.3439,-2.3449,-2.345,-2.3455,-2.3448,-2.3422,-2.3421,-2.3421,-2.342,0,-2.3502,-2.3475,-2.3519,-2.3501,-2.3498,-2.3533,-2.3519,-2.3544,-2.3527,-2.3558,-2.3564,-2.3538,-2.356,-2.3533,-2.3553,-2.3539,-2.36,-2.3583,-2.36,-2.3596,-2.3647,-2.3643,-2.3818,-2.3839,-2.3671,-2.3673,-2.3674,0,-2.3579,-2.3611,-2.3597,-2.361,-2.3608,-2.3629,-2.3639,-2.3603,-2.3616,-2.3616,-2.3641,-2.3659,-2.3672,-2.3711,-2.3695,-2.371,-2.3694,-2.3754,-2.3696,-2.3706,-2.3696,-2.3694,-2.3698,-2.3766,-2.3768,-2.377,-2.3771,0,-2.372,-2.3705,-2.372,-2.3732,-2.3744,-2.3751,-2.3755,-2.3769,-2.3732,-2.3749,-2.3771,-2.3781,-2.3802,-2.3821,-2.3833,-2.3829,-2.3795,-2.3789,-2.3802,-2.3813,-2.3822,-2.3819,-2.3633,-2.3786,-2.3784,-2.3783,-2.3782,-2.3782,-2.3826,-2.3853,-2.3847,-2.3866,-2.3865,-2.387,-2.3893,-2.3879,-2.3896,-2.391,-2.3889,-2.3917,-2.3915,-2.3927,-2.3927,-2.395,-2.3924,-2.3942,-2.3946,-2.3952,-2.396,-2.3819,-2.3951,-2.3951,-2.3951,-2.395,-2.395,0,-2.3965,-2.3959,-2.3977,-2.3984,-2.3999,-2.3965,-2.3968,-2.3984,-2.4009,-2.4009,-2.4023,-2.405,-2.4069,-2.4055,-2.4071,-2.4092,-2.4077,-2.4098,-2.4096,-2.4096,-2.3981,-2.3969,-2.411,-2.411,-2.411,-2.411,-2.411,-2.411,-2.4039,-2.4082,-2.4067,-2.411,-2.4104,-2.413,-2.4135,-2.4141,-2.4141,-2.4172,-2.4188,-2.4178,-2.4173,-2.4189,-2.4206,-2.4201,-2.421,-2.4236,-2.4226,-2.4119,-2.4104,-2.4089,-2.4077,-2.4238,-2.4238,-2.4339,-2.434,-2.434]},{"header":{"parameterUnit":"m.s-1","parameterCategory":1,"la1":30.2991,"la2":30.254,"lo1":-89.0895,"lo2":-89.0444,"dy":0.0017,"dx":0.0017,"nx":28,"ny":28,"refTime":"2025-08-09T21:00:00:Z","depth":0,"parameterNumber":3,"parameterNumberName":"V-component_of_WINDS"},"data":[0,0,0,0,0,0,0,0,0,0,0,0,0,0,0,0,0,0,0,0,0,0,0,0,0,0,0,0,0,0,0,0,0,0,0,0,0,0,0,0,0,0,0,0,0,0,0,0,0,0,0,0,0,0,0,0,0,0,2.0701,2.07,0,2.0636,2.0635,2.0635,2.0644,2.0645,2.0646,2.0647,2.0572,2.0569,2.0566,0,0,0,0,0,0,0,0,0,0,0,0,0,2.0825,2.0823,2.0701,2.07,2.0699,2.0636,2.0635,2.0634,2.0644,2.0645,2.0646,2.0648,2.0573,2.057,2.0566,0,0,0,0,0,0,0,0,0,0,0,0,0,2.0767,2.0822,2.0701,2.0697,2.0696,2.0636,2.0635,2.0634,2.0643,2.0645,2.0647,2.0648,2.0574,2.057,2.0566,2.0504,0,0,2.0552,2.055,0,0,0,0,0,0,0,0,2.077,2.0762,2.0698,2.0697,2.0696,2.065,2.0652,2.059,2.0643,2.0663,2.0647,2.0649,2.0596,2.059,2.0574,2.0501,2.0498,2.0551,2.0549,2.0547,2.0545,0,0,0,0,0,0,0,2.0774,2.0765,2.0675,2.0697,2.0696,2.0695,2.0689,2.064,2.0621,2.0661,2.0662,2.0654,2.0596,2.0578,2.0572,2.0497,2.0551,2.0547,2.0545,2.0543,2.0368,2.0366,0,0,0,0,0,0,2.078,2.0768,2.0677,2.0673,2.0738,2.0692,2.0684,2.0663,2.0621,2.0617,2.0653,2.0655,2.0585,2.0578,2.057,2.0494,2.0547,2.0542,2.054,2.037,2.0368,2.0365,0,0,0,0,0,0,2.0783,2.0772,2.068,2.0721,2.0709,2.0688,2.0663,2.0661,2.0643,2.0615,2.0611,2.0639,2.0586,2.0576,2.0521,2.0491,2.054,2.0536,2.0372,2.0369,2.0366,2.0342,0,0,0,0,0,0,2.0787,2.0773,2.0751,2.072,2.0707,2.0634,2.0662,2.0658,2.0636,2.0638,2.0601,2.0597,2.0587,2.0527,2.0516,2.0486,2.0533,2.0375,2.0371,2.0367,2.0345,2.0339,2.0333,0,0,0,0,0,2.0791,2.0746,2.075,2.0739,2.068,2.0633,2.0625,2.0617,2.0634,2.0611,2.0593,2.0598,2.0497,2.0522,2.0509,2.0477,2.0376,2.0372,2.0368,2.0348,2.034,2.0333,0,0,0,0,0,0,2.0771,2.0742,2.0746,2.069,2.0664,2.0634,2.0605,2.0608,2.0575,2.0578,2.0567,2.0558,2.0502,2.0484,2.0512,2.0415,2.0439,2.0432,2.0428,2.042,2.0414,2.0418,2.0529,0,0,0,0,0,2.0761,2.0727,2.0702,2.0655,2.0642,2.0626,2.0605,2.0601,2.0573,2.0561,2.0539,2.0508,2.047,2.0444,2.0407,2.0344,2.0334,2.0315,2.0309,2.0304,2.0297,2.026,2.0251,2.0351,2.0351,2.0351,0,0,2.0737,2.0717,2.0696,2.0651,2.063,2.0593,2.0616,2.0576,2.0548,2.0554,2.05,2.0483,2.0449,2.0389,2.0361,2.0372,2.0268,2.0299,2.0295,2.0291,2.0255,2.0245,2.0237,2.0348,2.0349,2.0349,0,0,2.0676,2.0659,2.0617,2.0597,2.0566,2.0556,2.0546,2.0515,2.0505,2.0452,2.0455,2.042,2.0355,2.0329,2.0308,2.0238,2.024,2.0226,2.0193,2.0157,2.0149,2.0141,2.0114,2.0105,2.022,2.022,2.022,0,2.065,2.0598,2.0594,2.0554,2.0533,2.054,2.0495,2.0475,2.0432,2.0416,2.043,2.0348,2.0325,2.0258,2.0241,2.0225,2.021,2.0229,2.0151,2.0143,2.0137,2.011,2.01,2.0218,2.0218,2.0218,2.0219,0,2.0566,2.053,2.0499,2.0461,2.0436,2.0394,2.0382,2.0357,2.0356,2.0343,2.0287,2.0261,2.0218,2.0203,2.02,2.0135,2.0142,2.0154,2.0177,2.0125,2.01,2.009,2.0216,2.0216,2.0217,2.0217,0,0,2.0489,2.0451,2.0439,2.0421,2.0388,2.0358,2.0316,2.0277,2.0254,2.0225,2.0187,2.0132,2.0142,2.0118,2.0113,2.0082,2.0025,2.0096,2.0095,2.0082,1.9948,1.9938,1.9927,2.0028,2.0026,2.0024,1.995,0,2.0423,2.035,2.0346,2.0279,2.0243,2.025,2.0212,2.0186,2.0174,2.0139,2.0124,2.0084,2.0102,2.0088,2.0057,2.0038,1.9997,2.0044,1.9989,1.9987,1.9995,1.9914,1.9903,1.9835,1.9941,1.9939,1.9938,0,2.0335,2.0306,2.0236,2.0208,2.0193,2.0159,2.0123,2.0091,2.0061,2.0054,2.0027,2.0027,1.998,2.0007,1.9941,1.9973,1.995,1.9938,1.9935,1.9927,1.9957,1.9901,1.9813,1.9802,1.9923,1.9924,1.9925,0,2.0283,2.0226,2.0176,2.0161,2.0128,2.0104,2.0088,2.006,2.0037,2.0004,1.9988,1.9949,1.9927,1.9896,1.9884,1.9905,1.9817,1.9844,1.9807,1.9807,1.9786,1.9787,1.969,1.9776,1.9776,1.9776,1.9776,0,2.0208,2.0164,2.0152,2.0121,2.0072,2.0067,2.0017,2.0002,1.9978,1.9942,1.9945,1.9911,1.9898,1.9861,1.9851,1.9797,1.9787,1.9777,1.9775,1.9776,1.9776,1.9758,1.9762,1.9773,1.9774,1.9774,1.9775,0,2.014,2.013,2.0076,2.005,2.0042,2.0006,1.9982,1.9951,1.994,1.9894,1.9883,1.9864,1.9821,1.9806,1.9753,1.9746,1.9682,1.9684,1.9692,1.9691,1.9654,1.9656,1.9539,1.9523,1.9622,1.9621,1.9621,0,2.0091,2.0058,2.0028,2.0006,1.999,1.9954,1.9931,1.9924,1.9899,1.9863,1.9835,1.9793,1.9759,1.9689,1.9668,1.9627,1.9627,1.9589,1.962,1.9622,1.9623,1.9624,1.9619,1.9582,1.9581,1.958,1.9579,0,2.0005,2.0002,1.997,1.9936,1.9908,1.988,1.9853,1.9834,1.9823,1.9794,1.9751,1.9725,1.9672,1.9629,1.9587,1.9568,1.957,1.957,1.9559,1.9558,1.9563,1.9557,1.9673,1.9572,1.9573,1.9573,1.9574,1.9574,1.9943,1.9914,1.9888,1.9852,1.9831,1.9806,1.9775,1.9761,1.9726,1.9684,1.9681,1.9634,1.9604,1.9549,1.9528,1.9489,1.9499,1.9483,1.9479,1.9474,1.947,1.9572,1.9481,1.9482,1.9482,1.9482,1.9482,0,1.9856,1.984,1.9807,1.977,1.974,1.9749,1.9719,1.9693,1.9653,1.9626,1.9592,1.9542,1.95,1.9477,1.9435,1.9408,1.9408,1.9397,1.9397,1.9392,1.9465,1.9477,1.9397,1.9397,1.9398,1.9398,1.9398,1.9398,1.9806,1.9756,1.975,1.9689,1.9673,1.9629,1.9611,1.9586,1.9565,1.9509,1.9476,1.9462,1.9435,1.9391,1.9353,1.9347,1.9329,1.9317,1.9311,1.9379,1.9387,1.9395,1.9407,1.9314,1.9314,1.9242,1.9241,1.924]}]]